Time,TemperatureF,DewpointF,PressureIn,WindDirection,WindDirectionDegrees,WindSpeedMPH,WindSpeedGustMPH,Humidity,HourlyPrecipIn,Conditions,Clouds,dailyrainin,SoftwareType,DateUTC
2013-03-11 00:00:00,77.2,69.0,29.56,SSE,158,3.8,4.3,76,0.00,,,0.00,VWS V14.01,2013-03-10 14:00:00,
2013-03-11 00:05:00,77.0,69.2,29.56,South,180,3.1,3.8,77,0.00,,,0.00,VWS V14.01,2013-03-10 14:05:00,
2013-03-11 00:10:00,76.6,68.9,29.56,SSE,158,3.6,3.6,77,0.00,,,0.00,VWS V14.01,2013-03-10 14:10:00,
2013-03-11 00:15:00,76.6,68.9,29.56,SSE,158,2.9,2.9,77,0.00,,,0.00,VWS V14.01,2013-03-10 14:15:00,
2013-03-11 00:20:00,76.6,69.3,29.56,SE,135,4.9,4.9,78,0.00,,,0.00,VWS V14.01,2013-03-10 14:20:00,
2013-03-11 00:25:00,76.5,69.1,29.56,SSW,202,2.7,2.7,78,0.00,,,0.00,VWS V14.01,2013-03-10 14:25:00,
2013-03-11 00:31:00,76.6,69.3,29.56,South,180,1.6,1.6,78,0.00,,,0.00,VWS V14.01,2013-03-10 14:31:00,
2013-03-11 00:36:00,76.5,69.1,29.56,South,180,2.5,2.5,78,0.00,,,0.00,VWS V14.01,2013-03-10 14:36:00,
2013-03-11 00:41:00,76.6,69.3,29.56,SSE,158,3.6,3.6,78,0.00,,,0.00,VWS V14.01,2013-03-10 14:41:00,
2013-03-11 00:46:00,76.5,69.1,29.56,SSW,202,2.7,3.8,78,0.00,,,0.00,VWS V14.01,2013-03-10 14:46:00,
2013-03-11 00:51:00,76.6,69.3,29.56,ESE,112,2.5,2.9,78,0.00,,,0.00,VWS V14.01,2013-03-10 14:51:00,
2013-03-11 00:56:00,76.5,69.1,29.56,SW,225,3.1,3.1,78,0.00,,,0.00,VWS V14.01,2013-03-10 14:56:00,
2013-03-11 01:01:00,76.5,69.1,29.56,South,180,2.5,2.5,78,0.00,,,0.00,VWS V14.01,2013-03-10 15:01:00,
2013-03-11 01:06:00,76.5,69.1,29.56,SSE,158,2.7,3.6,78,0.00,,,0.00,VWS V14.01,2013-03-10 15:06:00,
2013-03-11 01:11:00,76.5,69.1,29.56,SSW,202,2.0,2.0,78,0.00,,,0.00,VWS V14.01,2013-03-10 15:11:00,
2013-03-11 01:16:00,76.5,69.1,29.56,SE,135,3.1,3.1,78,0.00,,,0.00,VWS V14.01,2013-03-10 15:16:00,
2013-03-11 01:21:00,76.3,69.3,29.53,SE,135,3.8,3.8,79,0.00,,,0.00,VWS V14.01,2013-03-10 15:21:00,
2013-03-11 01:26:00,76.3,69.3,29.53,SW,225,1.3,3.8,79,0.00,,,0.00,VWS V14.01,2013-03-10 15:26:00,
2013-03-11 01:31:00,76.1,69.1,29.53,SSE,158,2.5,2.5,79,0.00,,,0.00,VWS V14.01,2013-03-10 15:31:00,
2013-03-11 01:36:00,76.1,69.1,29.53,South,180,2.0,2.5,79,0.00,,,0.00,VWS V14.01,2013-03-10 15:36:00,
2013-03-11 01:42:00,76.3,69.3,29.53,SSE,158,0.0,2.0,79,0.00,,,0.00,VWS V14.01,2013-03-10 15:42:00,
2013-03-11 01:47:00,76.3,69.3,29.53,South,180,0.0,1.3,79,0.00,,,0.00,VWS V14.01,2013-03-10 15:47:00,
2013-03-11 01:52:00,76.3,69.3,29.53,SSE,158,5.8,5.8,79,0.00,,,0.00,VWS V14.01,2013-03-10 15:52:00,
2013-03-11 01:57:00,76.3,69.3,29.53,SSE,158,2.9,2.9,79,0.00,,,0.00,VWS V14.01,2013-03-10 15:57:00,
2013-03-11 02:02:00,76.1,69.5,29.53,SSE,158,2.7,2.7,80,0.00,,,0.00,VWS V14.01,2013-03-10 16:02:00,
2013-03-11 02:07:00,75.9,69.3,29.53,SE,135,2.0,2.0,80,0.00,,,0.00,VWS V14.01,2013-03-10 16:07:00,
2013-03-11 02:12:00,75.9,69.3,29.53,South,180,0.0,1.6,80,0.00,,,0.00,VWS V14.01,2013-03-10 16:12:00,
2013-03-11 02:17:00,76.1,69.5,29.53,SSE,158,1.3,1.3,80,0.00,,,0.00,VWS V14.01,2013-03-10 16:17:00,
2013-03-11 02:22:00,76.1,69.5,29.53,SE,135,2.5,2.5,80,0.00,,,0.00,VWS V14.01,2013-03-10 16:22:00,
2013-03-11 02:27:00,75.7,69.1,29.53,SSE,158,8.5,8.5,80,0.00,,,0.00,VWS V14.01,2013-03-10 16:27:00,
2013-03-11 02:32:00,75.7,69.5,29.53,SSW,202,1.6,2.0,81,0.00,,,0.00,VWS V14.01,2013-03-10 16:32:00,
2013-03-11 02:37:00,76.1,69.8,29.53,SE,135,2.5,2.5,81,0.00,,,0.00,VWS V14.01,2013-03-10 16:37:00,
2013-03-11 02:42:00,75.9,69.7,29.53,South,180,3.8,3.8,81,0.00,,,0.00,VWS V14.01,2013-03-10 16:42:00,
2013-03-11 02:47:00,75.9,69.7,29.53,South,180,3.6,3.6,81,0.00,,,0.00,VWS V14.01,2013-03-10 16:47:00,
2013-03-11 02:52:00,76.3,69.7,29.53,South,180,4.0,4.0,80,0.00,,,0.00,VWS V14.01,2013-03-10 16:52:00,
2013-03-11 02:57:00,76.6,70.0,29.53,SE,135,3.4,4.0,80,0.00,,,0.00,VWS V14.01,2013-03-10 16:57:00,
2013-03-11 03:03:00,76.5,69.8,29.53,ESE,112,3.4,3.4,80,0.00,,,0.00,VWS V14.01,2013-03-10 17:03:00,
2013-03-11 03:08:00,76.5,69.8,29.53,SE,135,3.1,3.4,80,0.00,,,0.00,VWS V14.01,2013-03-10 17:08:00,
2013-03-11 03:13:00,76.3,69.7,29.53,SSE,158,4.0,4.0,80,0.00,,,0.00,VWS V14.01,2013-03-10 17:13:00,
2013-03-11 03:18:00,76.3,69.7,29.50,SE,135,3.8,3.8,80,0.00,,,0.00,VWS V14.01,2013-03-10 17:18:00,
2013-03-11 03:23:00,76.5,69.8,29.50,SSE,158,3.8,3.8,80,0.00,,,0.00,VWS V14.01,2013-03-10 17:23:00,
2013-03-11 03:28:00,76.6,70.0,29.50,SSE,158,3.1,3.1,80,0.00,,,0.00,VWS V14.01,2013-03-10 17:28:00,
2013-03-11 03:33:00,76.3,69.7,29.50,South,180,5.4,5.4,80,0.00,,,0.00,VWS V14.01,2013-03-10 17:33:00,
2013-03-11 03:38:00,76.5,69.8,29.50,SE,135,4.3,4.3,80,0.00,,,0.00,VWS V14.01,2013-03-10 17:38:00,
2013-03-11 03:43:00,76.5,69.8,29.50,South,180,4.3,4.3,80,0.00,,,0.00,VWS V14.01,2013-03-10 17:43:00,
2013-03-11 03:48:00,76.6,70.0,29.50,South,180,3.8,3.8,80,0.00,,,0.00,VWS V14.01,2013-03-10 17:48:00,
2013-03-11 03:53:00,76.6,70.0,29.50,SSE,158,3.1,3.1,80,0.00,,,0.00,VWS V14.01,2013-03-10 17:53:00,
2013-03-11 03:58:00,76.6,70.0,29.50,South,180,3.8,6.3,80,0.00,,,0.00,VWS V14.01,2013-03-10 17:58:00,
2013-03-11 04:03:00,77.0,70.4,29.50,SSE,158,5.4,5.4,80,0.00,,,0.00,VWS V14.01,2013-03-10 18:03:00,
2013-03-11 04:08:00,77.0,70.0,29.50,SE,135,3.8,3.8,79,0.00,,,0.00,VWS V14.01,2013-03-10 18:08:00,
2013-03-11 04:13:00,77.0,70.0,29.50,SSW,202,3.8,3.8,79,0.00,,,0.00,VWS V14.01,2013-03-10 18:13:00,
2013-03-11 04:18:00,76.8,70.2,29.50,South,180,2.5,4.9,80,0.00,,,0.00,VWS V14.01,2013-03-10 18:18:00,
2013-03-11 04:23:00,76.6,70.0,29.50,South,180,5.4,6.3,80,0.00,,,0.00,VWS V14.01,2013-03-10 18:23:00,
2013-03-11 04:28:00,76.8,70.2,29.50,SSW,202,4.0,4.0,80,0.00,,,0.00,VWS V14.01,2013-03-10 18:28:00,
2013-03-11 04:33:00,77.0,70.0,29.50,South,180,3.6,3.6,79,0.00,,,0.00,VWS V14.01,2013-03-10 18:33:00,
2013-03-11 04:39:00,76.8,70.2,29.50,SSE,158,3.8,3.8,80,0.00,,,0.00,VWS V14.01,2013-03-10 18:39:00,
2013-03-11 04:44:00,76.6,70.0,29.50,SSE,158,4.0,4.0,80,0.00,,,0.00,VWS V14.01,2013-03-10 18:44:00,
2013-03-11 04:49:00,76.6,70.0,29.50,SE,135,2.9,2.9,80,0.00,,,0.00,VWS V14.01,2013-03-10 18:49:00,
2013-03-11 04:54:00,76.5,69.8,29.50,South,180,3.8,3.8,80,0.00,,,0.00,VWS V14.01,2013-03-10 18:54:00,
2013-03-11 04:59:00,76.5,69.8,29.50,South,180,2.7,2.7,80,0.00,,,0.00,VWS V14.01,2013-03-10 18:59:00,
2013-03-11 05:04:00,76.5,69.8,29.50,SE,135,2.2,2.2,80,0.00,,,0.00,VWS V14.01,2013-03-10 19:04:00,
2013-03-11 05:09:00,76.5,69.8,29.50,South,180,3.6,3.6,80,0.00,,,0.00,VWS V14.01,2013-03-10 19:09:00,
2013-03-11 05:14:00,76.5,69.8,29.50,SSE,158,2.5,3.8,80,0.00,,,0.00,VWS V14.01,2013-03-10 19:14:00,
2013-03-11 05:19:00,76.3,69.7,29.50,SW,225,2.0,3.4,80,0.00,,,0.00,VWS V14.01,2013-03-10 19:19:00,
2013-03-11 05:24:00,76.3,69.7,29.50,SW,225,0.0,4.0,80,0.00,,,0.00,VWS V14.01,2013-03-10 19:24:00,
2013-03-11 05:29:00,76.5,69.8,29.50,SSE,158,3.1,3.1,80,0.00,,,0.00,VWS V14.01,2013-03-10 19:29:00,
2013-03-11 05:34:00,76.3,69.7,29.50,South,180,3.1,3.1,80,0.00,,,0.00,VWS V14.01,2013-03-10 19:34:00,
2013-03-11 05:39:00,76.1,69.5,29.50,SSW,202,0.0,2.5,80,0.00,,,0.00,VWS V14.01,2013-03-10 19:39:00,
2013-03-11 05:44:00,76.1,69.5,29.50,South,180,2.0,2.0,80,0.00,,,0.00,VWS V14.01,2013-03-10 19:44:00,
2013-03-11 05:49:00,76.1,69.5,29.53,SSW,202,3.4,3.4,80,0.00,,,0.00,VWS V14.01,2013-03-10 19:49:00,
2013-03-11 05:55:00,75.9,69.3,29.53,SW,225,4.3,4.3,80,0.00,,,0.00,VWS V14.01,2013-03-10 19:55:00,
2013-03-11 06:00:00,75.7,69.5,29.53,South,180,4.0,4.0,81,0.00,,,0.00,VWS V14.01,2013-03-10 20:00:00,
2013-03-11 06:05:00,75.6,69.3,29.53,SSW,202,2.7,3.1,81,0.00,,,0.00,VWS V14.01,2013-03-10 20:05:00,
2013-03-11 06:10:00,75.6,69.3,29.53,SSW,202,2.7,2.9,81,0.00,,,0.00,VWS V14.01,2013-03-10 20:10:00,
2013-03-11 06:15:00,75.4,69.2,29.53,SSW,202,2.9,2.9,81,0.00,,,0.00,VWS V14.01,2013-03-10 20:15:00,
2013-03-11 06:20:00,75.6,69.3,29.53,SSE,158,2.9,2.9,81,0.00,,,0.00,VWS V14.01,2013-03-10 20:20:00,
2013-03-11 06:26:00,75.6,69.3,29.53,South,180,4.9,4.9,81,0.00,,,0.00,VWS V14.01,2013-03-10 20:26:00,
2013-03-11 06:31:00,75.4,69.2,29.53,SSW,202,5.6,5.6,81,0.00,,,0.00,VWS V14.01,2013-03-10 20:31:00,
2013-03-11 06:36:00,75.4,69.2,29.53,South,180,4.3,4.3,81,0.00,,,0.00,VWS V14.01,2013-03-10 20:36:00,
2013-03-11 06:41:00,75.4,69.2,29.53,South,180,4.0,4.0,81,0.00,,,0.00,VWS V14.01,2013-03-10 20:41:00,
2013-03-11 06:47:00,75.2,69.0,29.53,SSW,202,3.1,5.6,81,0.00,,,0.00,VWS V14.01,2013-03-10 20:47:00,
2013-03-11 06:52:00,75.2,69.3,29.53,South,180,3.4,3.6,82,0.00,,,0.00,VWS V14.01,2013-03-10 20:52:00,
2013-03-11 06:58:00,75.4,69.5,29.53,South,180,2.9,3.6,82,0.00,,,0.00,VWS V14.01,2013-03-10 20:58:00,
2013-03-11 07:03:00,75.6,69.7,29.56,SSW,202,2.7,2.7,82,0.00,,,0.00,VWS V14.01,2013-03-10 21:03:00,
2013-03-11 07:08:00,75.6,69.3,29.56,South,180,2.7,4.7,81,0.00,,,0.00,VWS V14.01,2013-03-10 21:08:00,
2013-03-11 07:13:00,75.7,69.9,29.56,SSE,158,3.6,3.6,82,0.00,,,0.00,VWS V14.01,2013-03-10 21:13:00,
2013-03-11 07:18:00,75.7,69.9,29.56,South,180,1.6,3.8,82,0.00,,,0.00,VWS V14.01,2013-03-10 21:18:00,
2013-03-11 07:24:00,75.7,69.5,29.56,South,180,2.5,2.5,81,0.00,,,0.00,VWS V14.01,2013-03-10 21:24:00,
2013-03-11 07:29:00,76.1,70.2,29.56,SSE,158,2.9,2.9,82,0.00,,,0.00,VWS V14.01,2013-03-10 21:29:00,
2013-03-11 07:34:00,76.3,70.4,29.56,South,180,2.0,3.4,82,0.00,,,0.00,VWS V14.01,2013-03-10 21:34:00,
2013-03-11 07:39:00,76.3,70.4,29.56,SSE,158,2.7,2.7,82,0.00,,,0.00,VWS V14.01,2013-03-10 21:39:00,
2013-03-11 07:44:00,76.6,70.4,29.56,South,180,3.8,3.8,81,0.00,,,0.00,VWS V14.01,2013-03-10 21:44:00,
2013-03-11 07:49:00,76.8,70.6,29.56,SSE,158,1.3,1.3,81,0.00,,,0.00,VWS V14.01,2013-03-10 21:49:00,
2013-03-11 07:54:00,77.2,70.9,29.56,ESE,112,0.9,0.9,81,0.00,,,0.00,VWS V14.01,2013-03-10 21:54:00,
2013-03-11 08:00:00,77.4,70.7,29.56,SSE,158,3.6,3.6,80,0.00,,,0.00,VWS V14.01,2013-03-10 22:00:00,
2013-03-11 08:05:00,77.7,71.1,29.56,SE,135,2.7,4.0,80,0.00,,,0.00,VWS V14.01,2013-03-10 22:05:00,
2013-03-11 08:10:00,78.1,71.0,29.56,SE,135,2.0,3.4,79,0.00,,,0.00,VWS V14.01,2013-03-10 22:10:00,
2013-03-11 08:15:00,78.4,71.4,29.56,SE,135,0.0,2.0,79,0.00,,,0.00,VWS V14.01,2013-03-10 22:15:00,
2013-03-11 08:20:00,79.0,71.9,29.56,ESE,112,1.1,4.3,79,0.00,,,0.00,VWS V14.01,2013-03-10 22:20:00,
2013-03-11 08:25:00,79.3,71.9,29.56,South,180,2.5,2.5,78,0.00,,,0.00,VWS V14.01,2013-03-10 22:25:00,
2013-03-11 08:31:00,79.7,72.2,29.56,SSE,158,3.1,3.1,78,0.00,,,0.00,VWS V14.01,2013-03-10 22:31:00,
2013-03-11 08:37:00,80.2,72.0,29.56,SSW,202,7.4,7.4,76,0.00,,,0.00,VWS V14.01,2013-03-10 22:37:00,
2013-03-11 08:42:00,80.8,72.1,29.56,SE,135,6.5,6.5,75,0.00,,,0.00,VWS V14.01,2013-03-10 22:42:00,
2013-03-11 08:47:00,81.0,71.9,29.56,South,180,3.1,3.1,74,0.00,,,0.00,VWS V14.01,2013-03-10 22:47:00,
2013-03-11 08:52:00,81.1,72.1,29.56,South,180,5.8,5.8,74,0.00,,,0.00,VWS V14.01,2013-03-10 22:52:00,
2013-03-11 08:58:00,81.5,72.0,29.56,South,180,5.8,5.8,73,0.00,,,0.00,VWS V14.01,2013-03-10 22:58:00,
2013-03-11 09:03:00,81.9,72.4,29.56,South,180,4.3,4.3,73,0.00,,,0.00,VWS V14.01,2013-03-10 23:03:00,
2013-03-11 09:08:00,82.0,72.5,29.56,South,180,6.0,6.0,73,0.00,,,0.00,VWS V14.01,2013-03-10 23:08:00,
2013-03-11 09:13:00,82.0,72.1,29.56,WNW,292,7.6,7.6,72,0.00,,,0.00,VWS V14.01,2013-03-10 23:13:00,
2013-03-11 09:18:00,82.6,72.2,29.56,SW,225,5.8,5.8,71,0.00,,,0.00,VWS V14.01,2013-03-10 23:18:00,
2013-03-11 09:24:00,82.8,72.4,29.56,SW,225,4.5,4.5,71,0.00,,,0.00,VWS V14.01,2013-03-10 23:24:00,
2013-03-11 09:29:00,82.9,72.2,29.56,SSE,158,6.5,6.5,70,0.00,,,0.00,VWS V14.01,2013-03-10 23:29:00,
2013-03-11 09:34:00,83.3,72.9,29.56,SW,225,6.0,6.0,71,0.00,,,0.00,VWS V14.01,2013-03-10 23:34:00,
2013-03-11 09:39:00,83.7,73.3,29.56,SSE,158,8.7,8.7,71,0.00,,,0.00,VWS V14.01,2013-03-10 23:39:00,
2013-03-11 09:44:00,83.8,73.4,29.56,SSW,202,5.6,5.6,71,0.00,,,0.00,VWS V14.01,2013-03-10 23:44:00,
2013-03-11 09:49:00,84.2,73.4,29.56,SW,225,0.0,3.8,70,0.00,,,0.00,VWS V14.01,2013-03-10 23:49:00,
2013-03-11 09:55:00,83.8,73.0,29.56,South,180,1.6,1.6,70,0.00,,,0.00,VWS V14.01,2013-03-10 23:55:00,
2013-03-11 10:00:00,83.7,72.4,29.56,ESE,112,0.0,2.0,69,0.00,,,0.00,VWS V14.01,2013-03-11 00:00:00,
2013-03-11 10:05:00,84.6,73.3,29.56,SW,225,2.9,4.3,69,0.00,,,0.00,VWS V14.01,2013-03-11 00:05:00,
2013-03-11 10:10:00,84.9,73.6,29.56,SSE,158,3.4,3.4,69,0.00,,,0.00,VWS V14.01,2013-03-11 00:10:00,
2013-03-11 10:15:00,84.9,73.2,29.56,SSE,158,5.4,5.4,68,0.00,,,0.00,VWS V14.01,2013-03-11 00:15:00,
2013-03-11 10:20:00,84.7,73.0,29.56,WNW,292,6.3,6.3,68,0.00,,,0.00,VWS V14.01,2013-03-11 00:20:00,
2013-03-11 10:25:00,85.1,72.9,29.56,South,180,4.5,4.5,67,0.00,,,0.00,VWS V14.01,2013-03-11 00:25:00,
2013-03-11 10:30:00,85.6,73.4,29.56,SW,225,2.2,2.7,67,0.00,,,0.00,VWS V14.01,2013-03-11 00:30:00,
2013-03-11 10:35:00,85.6,73.0,29.56,SSE,158,4.7,4.7,66,0.00,,,0.00,VWS V14.01,2013-03-11 00:35:00,
2013-03-11 10:40:00,86.4,74.1,29.56,ESE,112,2.5,2.5,67,0.00,,,0.00,VWS V14.01,2013-03-11 00:40:00,
2013-03-11 10:45:00,86.5,73.8,29.56,SE,135,4.9,5.4,66,0.00,,,0.00,VWS V14.01,2013-03-11 00:45:00,
2013-03-11 10:51:00,86.5,73.8,29.56,SE,135,14.5,14.5,66,0.00,,,0.00,VWS V14.01,2013-03-11 00:51:00,
2013-03-11 10:56:00,86.2,73.5,29.56,South,180,3.4,3.4,66,0.00,,,0.00,VWS V14.01,2013-03-11 00:56:00,
2013-03-11 11:01:00,85.8,73.2,29.56,South,180,4.9,4.9,66,0.00,,,0.00,VWS V14.01,2013-03-11 01:01:00,
2013-03-11 11:06:00,85.8,73.2,29.56,SSE,158,7.2,7.2,66,0.00,,,0.00,VWS V14.01,2013-03-11 01:06:00,
2013-03-11 11:11:00,86.0,73.3,29.56,SE,135,6.0,6.0,66,0.00,,,0.00,VWS V14.01,2013-03-11 01:11:00,
2013-03-11 11:16:00,86.2,73.0,29.56,SSW,202,0.0,4.3,65,0.00,,,0.00,VWS V14.01,2013-03-11 01:16:00,
2013-03-11 11:21:00,86.2,73.5,29.56,SSE,158,5.4,5.4,66,0.00,,,0.00,VWS V14.01,2013-03-11 01:21:00,
2013-03-11 11:27:00,86.5,73.8,29.56,SSE,158,3.6,3.6,66,0.00,,,0.00,VWS V14.01,2013-03-11 01:27:00,
2013-03-11 11:32:00,87.3,74.1,29.56,South,180,5.6,5.6,65,0.00,,,0.00,VWS V14.01,2013-03-11 01:32:00,
2013-03-11 11:37:00,87.8,74.1,29.56,SE,135,7.2,7.4,64,0.00,,,0.00,VWS V14.01,2013-03-11 01:37:00,
2013-03-11 11:42:00,87.6,73.9,29.56,ENE,68,1.3,1.3,64,0.00,,,0.00,VWS V14.01,2013-03-11 01:42:00,
2013-03-11 11:47:00,87.4,73.8,29.56,SSE,158,7.4,8.1,64,0.00,,,0.00,VWS V14.01,2013-03-11 01:47:00,
2013-03-11 11:52:00,87.3,73.6,29.56,SW,225,0.0,2.5,64,0.00,,,0.00,VWS V14.01,2013-03-11 01:52:00,
2013-03-11 11:58:00,87.6,73.9,29.56,ENE,68,2.7,4.3,64,0.00,,,0.00,VWS V14.01,2013-03-11 01:58:00,
2013-03-11 12:03:00,87.8,73.6,29.53,East,90,4.0,4.0,63,0.00,,,0.00,VWS V14.01,2013-03-11 02:03:00,
2013-03-11 12:08:00,87.1,73.4,29.53,SSE,158,5.4,5.4,64,0.00,,,0.00,VWS V14.01,2013-03-11 02:08:00,
2013-03-11 12:13:00,87.4,73.8,29.53,East,90,3.1,3.4,64,0.00,,,0.00,VWS V14.01,2013-03-11 02:13:00,
2013-03-11 12:18:00,87.3,73.1,29.53,NNW,338,2.0,2.0,63,0.00,,,0.00,VWS V14.01,2013-03-11 02:18:00,
2013-03-11 12:23:00,87.1,73.4,29.53,SSE,158,5.6,5.6,64,0.00,,,0.00,VWS V14.01,2013-03-11 02:23:00,
2013-03-11 12:28:00,87.1,73.4,29.53,South,180,2.5,2.5,64,0.00,,,0.00,VWS V14.01,2013-03-11 02:28:00,
2013-03-11 12:34:00,87.8,73.6,29.53,SW,225,0.0,0.0,63,0.00,,,0.00,VWS V14.01,2013-03-11 02:34:00,
2013-03-11 12:39:00,87.3,73.6,29.53,SSE,158,3.8,6.3,64,0.00,,,0.00,VWS V14.01,2013-03-11 02:39:00,
2013-03-11 12:44:00,86.9,73.3,29.53,North,360,9.6,9.6,64,0.00,,,0.00,VWS V14.01,2013-03-11 02:44:00,
2013-03-11 12:49:00,87.4,73.8,29.53,South,180,7.8,7.8,64,0.00,,,0.00,VWS V14.01,2013-03-11 02:49:00,
2013-03-11 12:54:00,87.4,73.8,29.53,South,180,11.0,11.0,64,0.00,,,0.00,VWS V14.01,2013-03-11 02:54:00,
2013-03-11 12:59:00,88.0,74.3,29.53,SW,225,2.9,6.0,64,0.00,,,0.00,VWS V14.01,2013-03-11 02:59:00,
2013-03-11 13:04:00,88.0,74.3,29.50,SSE,158,13.2,13.2,64,0.00,,,0.00,VWS V14.01,2013-03-11 03:04:00,
2013-03-11 13:09:00,88.5,74.3,29.50,ENE,68,3.8,3.8,63,0.00,,,0.00,VWS V14.01,2013-03-11 03:09:00,
2013-03-11 13:14:00,88.5,74.3,29.50,SSW,202,6.5,6.5,63,0.00,,,0.00,VWS V14.01,2013-03-11 03:14:00,
2013-03-11 13:19:00,88.0,73.8,29.50,SSE,158,5.6,5.6,63,0.00,,,0.00,VWS V14.01,2013-03-11 03:19:00,
2013-03-11 13:24:00,88.2,74.0,29.50,East,90,4.7,4.7,63,0.00,,,0.00,VWS V14.01,2013-03-11 03:24:00,
2013-03-11 13:30:00,87.8,74.1,29.50,East,90,10.7,10.7,64,0.00,,,0.00,VWS V14.01,2013-03-11 03:30:00,
2013-03-11 13:35:00,87.1,73.4,29.50,ESE,112,4.9,4.9,64,0.00,,,0.00,VWS V14.01,2013-03-11 03:35:00,
2013-03-11 13:40:00,86.7,73.1,29.50,ESE,112,3.6,7.6,64,0.00,,,0.00,VWS V14.01,2013-03-11 03:40:00,
2013-03-11 13:45:00,86.5,73.4,29.50,SE,135,3.6,3.6,65,0.00,,,0.00,VWS V14.01,2013-03-11 03:45:00,
2013-03-11 13:50:00,86.9,74.2,29.50,NNE,22,1.3,4.0,66,0.00,,,0.00,VWS V14.01,2013-03-11 03:50:00,
2013-03-11 13:55:00,86.9,73.7,29.50,East,90,7.4,7.4,65,0.00,,,0.00,VWS V14.01,2013-03-11 03:55:00,
2013-03-11 14:00:00,87.4,74.2,29.50,South,180,4.0,4.9,65,0.00,,,0.00,VWS V14.01,2013-03-11 04:00:00,
2013-03-11 14:01:00,87.4,74.2,29.50,East,90,8.1,8.1,65,0.00,,,0.00,VWS V14.01,2013-03-11 04:01:00,
2013-03-11 14:02:00,87.3,74.1,29.50,East,90,7.6,8.1,65,0.00,,,0.00,VWS V14.01,2013-03-11 04:02:00,
2013-03-11 14:07:00,86.9,73.3,29.50,ENE,68,5.8,5.8,64,0.00,,,0.00,VWS V14.01,2013-03-11 04:07:00,
2013-03-11 14:12:00,86.5,72.9,29.50,SW,225,2.7,2.7,64,0.00,,,0.00,VWS V14.01,2013-03-11 04:12:00,
2013-03-11 14:17:00,87.3,74.1,29.47,SE,135,2.7,2.7,65,0.00,,,0.00,VWS V14.01,2013-03-11 04:17:00,
2013-03-11 14:22:00,87.1,73.4,29.47,South,180,4.0,5.6,64,0.00,,,0.00,VWS V14.01,2013-03-11 04:22:00,
2013-03-11 14:28:00,86.7,72.6,29.47,South,180,1.3,2.9,63,0.00,,,0.00,VWS V14.01,2013-03-11 04:28:00,
2013-03-11 14:33:00,86.7,73.1,29.47,North,360,2.7,2.7,64,0.00,,,0.00,VWS V14.01,2013-03-11 04:33:00,
2013-03-11 14:38:00,87.1,73.4,29.47,SE,135,6.0,6.0,64,0.00,,,0.00,VWS V14.01,2013-03-11 04:38:00,
2013-03-11 14:43:00,86.2,72.6,29.47,SE,135,2.9,3.1,64,0.00,,,0.00,VWS V14.01,2013-03-11 04:43:00,
2013-03-11 14:48:00,86.0,72.9,29.47,South,180,6.5,6.5,65,0.00,,,0.00,VWS V14.01,2013-03-11 04:48:00,
2013-03-11 14:53:00,85.5,72.8,29.47,South,180,5.4,7.8,66,0.00,,,0.00,VWS V14.01,2013-03-11 04:53:00,
2013-03-11 14:58:00,85.1,72.5,29.47,NE,45,10.3,10.3,66,0.00,,,0.00,VWS V14.01,2013-03-11 04:58:00,
2013-03-11 15:04:00,84.4,72.2,29.47,South,180,6.0,6.0,67,0.00,,,0.00,VWS V14.01,2013-03-11 05:04:00,
2013-03-11 15:09:00,84.4,72.2,29.50,SSW,202,15.4,15.4,67,0.00,,,0.00,VWS V14.01,2013-03-11 05:09:00,
2013-03-11 15:14:00,84.4,72.2,29.50,South,180,3.8,3.8,67,0.00,,,0.00,VWS V14.01,2013-03-11 05:14:00,
2013-03-11 15:19:00,84.7,72.6,29.50,SSW,202,3.8,3.8,67,0.00,,,0.00,VWS V14.01,2013-03-11 05:19:00,
2013-03-11 15:24:00,84.7,72.6,29.50,SSE,158,8.7,8.7,67,0.00,,,0.00,VWS V14.01,2013-03-11 05:24:00,
2013-03-11 15:29:00,84.6,72.4,29.50,SE,135,2.9,3.6,67,0.00,,,0.00,VWS V14.01,2013-03-11 05:29:00,
2013-03-11 15:34:00,84.0,71.4,29.50,East,90,8.1,8.1,66,0.00,,,0.00,VWS V14.01,2013-03-11 05:34:00,
2013-03-11 15:39:00,83.8,71.7,29.50,NNE,22,2.5,5.6,67,0.00,,,0.00,VWS V14.01,2013-03-11 05:39:00,
2013-03-11 15:45:00,84.0,71.9,29.50,SE,135,3.4,3.4,67,0.00,,,0.00,VWS V14.01,2013-03-11 05:45:00,
2013-03-11 15:50:00,83.7,71.6,29.50,North,360,4.7,4.7,67,0.00,,,0.00,VWS V14.01,2013-03-11 05:50:00,
2013-03-11 15:55:00,83.8,72.2,29.50,SE,135,7.8,8.7,68,0.00,,,0.00,VWS V14.01,2013-03-11 05:55:00,
2013-03-11 16:00:00,83.7,71.6,29.50,SSE,158,7.6,7.6,67,0.00,,,0.00,VWS V14.01,2013-03-11 06:00:00,
2013-03-11 16:05:00,83.5,71.4,29.50,SE,135,1.6,6.5,67,0.00,,,0.00,VWS V14.01,2013-03-11 06:05:00,
2013-03-11 16:10:00,83.7,72.0,29.50,SSE,158,1.1,3.1,68,0.00,,,0.00,VWS V14.01,2013-03-11 06:10:00,
2013-03-11 16:15:00,83.1,71.5,29.50,SE,135,6.5,11.0,68,0.00,,,0.00,VWS V14.01,2013-03-11 06:15:00,
2013-03-11 16:20:00,82.8,71.6,29.50,SSW,202,13.0,13.0,69,0.00,,,0.00,VWS V14.01,2013-03-11 06:20:00,
2013-03-11 16:25:00,82.4,71.2,29.50,SSE,158,3.8,3.8,69,0.00,,,0.00,VWS V14.01,2013-03-11 06:25:00,
2013-03-11 16:30:00,82.2,71.9,29.50,South,180,6.7,6.7,71,0.00,,,0.00,VWS V14.01,2013-03-11 06:30:00,
2013-03-11 16:35:00,82.0,71.7,29.50,SSE,158,5.6,5.6,71,0.00,,,0.00,VWS V14.01,2013-03-11 06:35:00,
2013-03-11 16:40:00,81.9,71.5,29.50,South,180,6.0,6.0,71,0.00,,,0.00,VWS V14.01,2013-03-11 06:40:00,
2013-03-11 16:45:00,81.7,71.4,29.50,SSW,202,3.1,3.1,71,0.00,,,0.00,VWS V14.01,2013-03-11 06:45:00,
2013-03-11 16:50:00,81.7,71.4,29.50,SSW,202,7.6,7.6,71,0.00,,,0.00,VWS V14.01,2013-03-11 06:50:00,
2013-03-11 16:56:00,81.5,71.2,29.50,South,180,2.5,4.3,71,0.00,,,0.00,VWS V14.01,2013-03-11 06:56:00,
2013-03-11 17:01:00,81.3,70.6,29.50,SSW,202,4.3,4.3,70,0.00,,,0.00,VWS V14.01,2013-03-11 07:01:00,
2013-03-11 17:06:00,81.3,71.0,29.50,South,180,4.0,4.0,71,0.00,,,0.00,VWS V14.01,2013-03-11 07:06:00,
2013-03-11 17:11:00,81.1,70.8,29.50,SSE,158,4.3,4.3,71,0.00,,,0.00,VWS V14.01,2013-03-11 07:11:00,
2013-03-11 17:16:00,80.8,70.5,29.50,South,180,5.6,5.6,71,0.00,,,0.00,VWS V14.01,2013-03-11 07:16:00,
2013-03-11 17:21:00,80.6,70.8,29.53,SE,135,4.3,4.3,72,0.00,,,0.00,VWS V14.01,2013-03-11 07:21:00,
2013-03-11 17:26:00,80.4,71.4,29.53,ESE,112,3.6,3.6,74,0.00,,,0.00,VWS V14.01,2013-03-11 07:26:00,
2013-03-11 17:31:00,79.7,71.5,29.53,ESE,112,2.2,2.2,76,0.00,,,0.00,VWS V14.01,2013-03-11 07:31:00,
2013-03-11 17:36:00,79.3,71.1,29.53,South,180,3.6,6.0,76,0.04,,,0.04,VWS V14.01,2013-03-11 07:36:00,
2013-03-11 17:42:00,79.2,71.3,29.53,South,180,4.9,4.9,77,0.04,,,0.04,VWS V14.01,2013-03-11 07:42:00,
2013-03-11 17:47:00,79.2,71.3,29.53,SSE,158,6.3,6.3,77,0.04,,,0.04,VWS V14.01,2013-03-11 07:47:00,
2013-03-11 17:52:00,79.0,71.5,29.53,SSE,158,4.7,7.6,78,0.04,,,0.04,VWS V14.01,2013-03-11 07:52:00,
2013-03-11 17:57:00,79.2,71.7,29.53,SSE,158,3.8,3.8,78,0.04,,,0.04,VWS V14.01,2013-03-11 07:57:00,
2013-03-11 18:02:00,78.8,71.4,29.53,NE,45,4.9,5.8,78,0.04,,,0.04,VWS V14.01,2013-03-11 08:02:00,
2013-03-11 18:07:00,78.3,71.2,29.53,WSW,248,2.0,2.0,79,0.09,,,0.09,VWS V14.01,2013-03-11 08:07:00,
2013-03-11 18:12:00,78.1,71.0,29.53,NNE,22,0.0,0.0,79,0.13,,,0.13,VWS V14.01,2013-03-11 08:12:00,
2013-03-11 18:17:00,78.1,71.4,29.53,SE,135,3.1,3.1,80,0.17,,,0.17,VWS V14.01,2013-03-11 08:17:00,
2013-03-11 18:23:00,77.9,71.2,29.53,South,180,0.9,0.9,80,0.17,,,0.17,VWS V14.01,2013-03-11 08:23:00,
2013-03-11 18:28:00,77.7,71.1,29.53,SSW,202,0.0,0.0,80,0.17,,,0.17,VWS V14.01,2013-03-11 08:28:00,
2013-03-11 18:33:00,77.7,71.1,29.56,SE,135,0.0,0.0,80,0.21,,,0.21,VWS V14.01,2013-03-11 08:33:00,
2013-03-11 18:38:00,77.7,71.1,29.56,SE,135,3.8,3.8,80,0.17,,,0.21,VWS V14.01,2013-03-11 08:38:00,
2013-03-11 18:43:00,77.7,71.1,29.56,SSW,202,1.3,1.3,80,0.17,,,0.21,VWS V14.01,2013-03-11 08:43:00,
2013-03-11 18:48:00,77.7,71.1,29.56,SE,135,2.5,2.5,80,0.17,,,0.21,VWS V14.01,2013-03-11 08:48:00,
2013-03-11 18:53:00,77.7,71.1,29.56,SSE,158,1.6,2.5,80,0.17,,,0.21,VWS V14.01,2013-03-11 08:53:00,
2013-03-11 18:58:00,77.7,71.1,29.56,SW,225,0.9,0.9,80,0.17,,,0.21,VWS V14.01,2013-03-11 08:58:00,
2013-03-11 19:03:00,77.7,71.1,29.56,SSE,158,1.1,2.5,80,0.12,,,0.21,VWS V14.01,2013-03-11 09:03:00,
2013-03-11 19:08:00,77.4,71.1,29.56,SSW,202,2.0,2.0,81,0.12,,,0.21,VWS V14.01,2013-03-11 09:08:00,
2013-03-11 19:13:00,77.4,71.1,29.56,SE,135,3.4,3.4,81,0.08,,,0.21,VWS V14.01,2013-03-11 09:13:00,
2013-03-11 19:19:00,77.4,71.1,29.56,South,180,2.9,2.9,81,0.04,,,0.21,VWS V14.01,2013-03-11 09:19:00,
2013-03-11 19:24:00,77.4,71.1,29.56,SSE,158,2.9,3.8,81,0.04,,,0.21,VWS V14.01,2013-03-11 09:24:00,
2013-03-11 19:29:00,77.0,71.1,29.56,SSE,158,3.8,3.8,82,0.04,,,0.21,VWS V14.01,2013-03-11 09:29:00,
2013-03-11 19:34:00,76.6,70.7,29.56,South,180,4.3,4.3,82,0.00,,,0.21,VWS V14.01,2013-03-11 09:34:00,
2013-03-11 19:39:00,76.6,71.1,29.56,SSW,202,4.9,4.9,83,0.00,,,0.21,VWS V14.01,2013-03-11 09:39:00,
2013-03-11 19:44:00,76.6,71.1,29.56,South,180,3.4,3.4,83,0.00,,,0.21,VWS V14.01,2013-03-11 09:44:00,
2013-03-11 19:49:00,76.6,71.1,29.56,SSE,158,2.0,2.0,83,0.00,,,0.21,VWS V14.01,2013-03-11 09:49:00,
2013-03-11 19:54:00,76.6,71.1,29.56,SE,135,2.0,2.9,83,0.00,,,0.21,VWS V14.01,2013-03-11 09:54:00,
2013-03-11 19:59:00,76.8,71.6,29.56,SE,135,0.0,0.0,84,0.00,,,0.21,VWS V14.01,2013-03-11 09:59:00,
2013-03-11 20:05:00,76.8,71.6,29.56,SE,135,0.0,0.0,84,0.00,,,0.21,VWS V14.01,2013-03-11 10:05:00,
2013-03-11 20:10:00,77.0,71.8,29.56,SE,135,0.0,0.0,84,0.00,,,0.21,VWS V14.01,2013-03-11 10:10:00,
2013-03-11 20:15:00,77.2,72.0,29.56,SE,135,0.0,0.0,84,0.00,,,0.21,VWS V14.01,2013-03-11 10:15:00,
2013-03-11 20:20:00,77.2,72.0,29.56,SSE,158,0.0,0.0,84,0.00,,,0.21,VWS V14.01,2013-03-11 10:20:00,
2013-03-11 20:25:00,76.6,71.8,29.56,SSE,158,0.0,0.0,85,0.04,,,0.25,VWS V14.01,2013-03-11 10:25:00,
2013-03-11 20:30:00,76.6,71.8,29.56,South,180,0.0,0.0,85,0.04,,,0.25,VWS V14.01,2013-03-11 10:30:00,
2013-03-11 20:35:00,76.6,71.8,29.56,South,180,0.0,0.0,85,0.04,,,0.25,VWS V14.01,2013-03-11 10:35:00,
2013-03-11 20:40:00,76.5,72.0,29.56,ESE,112,1.1,1.1,86,0.04,,,0.25,VWS V14.01,2013-03-11 10:40:00,
2013-03-11 20:45:00,76.5,72.0,29.56,SE,135,0.0,0.0,86,0.04,,,0.25,VWS V14.01,2013-03-11 10:45:00,
2013-03-11 20:50:00,76.5,72.0,29.56,SE,135,0.0,0.0,86,0.04,,,0.25,VWS V14.01,2013-03-11 10:50:00,
2013-03-11 20:56:00,76.6,72.1,29.56,SE,135,0.0,0.0,86,0.04,,,0.25,VWS V14.01,2013-03-11 10:56:00,
2013-03-11 21:01:00,76.5,72.0,29.56,SSE,158,0.0,1.3,86,0.04,,,0.25,VWS V14.01,2013-03-11 11:01:00,
2013-03-11 21:06:00,76.5,72.0,29.56,SE,135,0.0,2.0,86,0.04,,,0.25,VWS V14.01,2013-03-11 11:06:00,
2013-03-11 21:11:00,76.5,72.0,29.59,SSE,158,0.0,0.0,86,0.04,,,0.25,VWS V14.01,2013-03-11 11:11:00,
2013-03-11 21:16:00,76.5,72.0,29.59,SE,135,2.7,2.7,86,0.04,,,0.25,VWS V14.01,2013-03-11 11:16:00,
2013-03-11 21:21:00,76.5,72.0,29.59,NNE,22,0.0,2.9,86,0.04,,,0.25,VWS V14.01,2013-03-11 11:21:00,
2013-03-11 21:27:00,76.5,72.0,29.59,South,180,1.3,1.3,86,0.00,,,0.25,VWS V14.01,2013-03-11 11:27:00,
2013-03-11 21:32:00,76.1,71.3,29.59,SW,225,0.0,0.0,85,0.00,,,0.25,VWS V14.01,2013-03-11 11:32:00,
2013-03-11 21:37:00,75.9,71.4,29.59,SSE,158,2.9,2.9,86,0.00,,,0.25,VWS V14.01,2013-03-11 11:37:00,
2013-03-11 21:42:00,75.9,71.4,29.59,SSE,158,2.7,3.4,86,0.04,,,0.29,VWS V14.01,2013-03-11 11:42:00,
2013-03-11 21:48:00,75.9,71.4,29.59,SE,135,3.4,3.8,86,0.04,,,0.29,VWS V14.01,2013-03-11 11:48:00,
2013-03-11 21:53:00,75.7,71.3,29.59,SSW,202,6.0,6.0,86,0.04,,,0.29,VWS V14.01,2013-03-11 11:53:00,
2013-03-11 21:58:00,75.7,71.3,29.59,SSE,158,3.8,3.8,86,0.04,,,0.29,VWS V14.01,2013-03-11 11:58:00,
2013-03-11 22:03:00,75.4,70.6,29.59,SE,135,4.0,4.0,85,0.04,,,0.29,VWS V14.01,2013-03-11 12:03:00,
2013-03-11 22:08:00,75.4,70.6,29.59,South,180,9.4,9.4,85,0.04,,,0.29,VWS V14.01,2013-03-11 12:08:00,
2013-03-11 22:13:00,75.4,70.6,29.59,SSE,158,2.9,2.9,85,0.04,,,0.29,VWS V14.01,2013-03-11 12:13:00,
2013-03-11 22:18:00,75.6,70.7,29.59,SSE,158,4.7,4.7,85,0.04,,,0.29,VWS V14.01,2013-03-11 12:18:00,
2013-03-11 22:23:00,75.4,70.6,29.59,SSE,158,3.8,3.8,85,0.04,,,0.29,VWS V14.01,2013-03-11 12:23:00,
2013-03-11 22:29:00,75.2,70.4,29.59,SSE,158,5.6,5.6,85,0.04,,,0.29,VWS V14.01,2013-03-11 12:29:00,
2013-03-11 22:34:00,75.2,70.7,29.59,South,180,3.1,3.1,86,0.04,,,0.29,VWS V14.01,2013-03-11 12:34:00,
2013-03-11 22:39:00,75.2,70.7,29.59,South,180,4.7,4.7,86,0.04,,,0.29,VWS V14.01,2013-03-11 12:39:00,
2013-03-11 22:44:00,75.2,70.7,29.59,South,180,3.4,3.6,86,0.00,,,0.29,VWS V14.01,2013-03-11 12:44:00,
2013-03-11 22:49:00,75.4,70.9,29.59,South,180,5.4,5.4,86,0.00,,,0.29,VWS V14.01,2013-03-11 12:49:00,
2013-03-11 22:54:00,75.2,70.7,29.59,South,180,5.4,5.4,86,0.00,,,0.29,VWS V14.01,2013-03-11 12:54:00,
2013-03-11 22:59:00,75.2,70.7,29.59,SSE,158,2.7,2.7,86,0.00,,,0.29,VWS V14.01,2013-03-11 12:59:00,
2013-03-11 23:05:00,75.4,70.9,29.59,SE,135,3.6,4.3,86,0.00,,,0.29,VWS V14.01,2013-03-11 13:05:00,
2013-03-11 23:10:00,75.4,70.9,29.59,South,180,4.3,4.3,86,0.00,,,0.29,VWS V14.01,2013-03-11 13:10:00,
2013-03-11 23:15:00,75.4,70.6,29.59,SSE,158,3.6,3.6,85,0.00,,,0.29,VWS V14.01,2013-03-11 13:15:00,
2013-03-11 23:20:00,75.2,70.7,29.59,SSW,202,1.6,2.5,86,0.00,,,0.29,VWS V14.01,2013-03-11 13:20:00,
2013-03-11 23:25:00,75.4,70.9,29.59,SSE,158,3.4,3.4,86,0.00,,,0.29,VWS V14.01,2013-03-11 13:25:00,
2013-03-11 23:31:00,75.2,70.7,29.59,SSW,202,2.9,6.0,86,0.00,,,0.29,VWS V14.01,2013-03-11 13:31:00,
2013-03-11 23:36:00,75.6,71.1,29.59,SSW,202,0.0,1.1,86,0.00,,,0.29,VWS V14.01,2013-03-11 13:36:00,
2013-03-11 23:41:00,75.6,71.4,29.59,South,180,2.7,3.4,87,0.00,,,0.29,VWS V14.01,2013-03-11 13:41:00,
2013-03-11 23:46:00,75.2,71.1,29.59,SE,135,4.3,4.3,87,0.00,,,0.29,VWS V14.01,2013-03-11 13:46:00,
2013-03-11 23:51:00,75.2,71.1,29.56,SE,135,3.8,3.8,87,0.00,,,0.29,VWS V14.01,2013-03-11 13:51:00,
2013-03-11 23:56:00,75.4,71.2,29.56,SW,225,3.4,3.4,87,0.00,,,0.29,VWS V14.01,2013-03-11 13:56:00,